Wind_Speed
26 26 26 26 27 28 28 28 29 32 33 34 35 35 35 37 38 38 37 38 40 40 38 38 37 36 36 37 37 37 38 38 39 39 39 39 40 39 40 39 39 39 39
25 25 25 26 25 25 26 26 27 29 31 33 34 34 35 35 36 37 37 37 38 39 38 38 37 37 37 38 39 39 39 39 39 40 40 40 41 41 41 41 40 41 40
24 24 24 24 24 24 24 25 27 28 30 31 33 33 34 35 35 37 37 38 37 38 39 39 38 38 38 39 40 40 40 40 40 41 42 42 42 43 42 41 41 41 41
23 24 24 23 22 22 23 23 26 27 28 30 33 34 34 34 35 37 38 38 38 38 40 40 39 38 39 39 40 40 40 41 42 43 43 43 43 43 43 42 43 43 43
22 23 24 23 22 23 23 24 26 27 29 30 33 33 33 34 35 37 38 38 37 37 39 40 39 39 39 39 40 41 42 42 42 42 42 42 43 43 44 43 43 44 44
23 24 24 23 23 23 24 24 25 27 28 29 31 32 33 34 34 35 37 37 36 38 38 40 40 40 40 40 40 41 42 42 42 42 42 42 43 44 44 45 44 45 45
23 23 24 23 23 23 23 24 25 26 28 29 30 32 33 34 35 36 36 36 36 36 38 39 40 40 41 41 41 42 42 44 44 45 45 44 44 45 46 47 47 47 47
23 24 23 23 22 22 23 24 25 26 28 29 31 32 33 34 35 36 37 37 37 37 38 38 40 41 41 42 43 43 44 45 45 45 46 47 47 47 47 48 48 48 47
24 24 24 23 23 23 24 25 25 25 28 30 31 32 33 35 35 36 37 38 38 39 39 39 40 41 41 42 43 44 45 45 46 46 47 48 48 49 49 49 49 49 49
24 24 24 24 24 24 25 25 25 26 28 30 31 32 33 34 36 37 38 38 38 38 39 39 41 42 43 43 43 45 46 46 46 47 48 49 49 49 49 49 50 50 51
24 24 24 24 25 25 24 25 26 27 29 30 31 32 33 34 35 37 38 39 40 41 41 41 41 42 44 45 46 46 46 46 47 47 48 49 49 49 49 49 50 50 51
25 25 26 25 25 25 25 26 27 28 29 30 31 32 33 34 35 37 38 39 41 41 41 42 42 43 44 45 46 47 47 47 47 48 48 48 49 49 49 49 50 50 50
26 26 26 26 27 27 27 27 28 28 29 29 30 32 33 34 35 37 38 39 40 41 41 43 44 44 45 46 46 47 48 48 48 48 48 48 48 48 48 50 50 50 50
27 27 27 28 28 28 28 28 29 30 30 31 31 32 33 34 35 37 38 39 40 41 41 43 44 45 45 47 48 49 48 48 47 47 47 47 47 47 48 48 48 48 48
27 27 28 29 29 29 29 30 30 31 31 32 32 33 34 35 35 37 38 39 40 41 42 43 44 45 46 47 47 48 47 46 46 47 47 47 47 47 47 46 47 47 47
29 30 30 30 31 31 31 32 32 32 32 33 34 35 35 36 37 38 38 39 40 41 42 43 44 45 46 46 46 46 47 47 47 47 47 47 46 46 46 46 46 46 47
31 31 31 32 33 33 33 33 33 34 34 35 35 35 36 37 38 38 39 40 41 41 41 42 43 44 45 46 45 45 46 46 47 46 46 46 46 46 46 45 45 45 45
32 32 32 33 33 34 34 35 35 35 35 36 37 37 37 38 38 38 39 40 40 41 41 42 43 44 44 45 45 45 46 46 46 46 46 46 46 46 45 44 44 44 45
32 32 32 33 33 34 34 35 35 36 36 37 38 38 38 38 39 39 39 40 40 41 42 44 45 45 45 45 45 46 46 46 46 46 46 45 45 45 44 44 44 44 44
33 33 33 33 33 33 34 35 36 36 37 37 38 38 39 39 40 40 40 41 42 43 44 44 45 45 45 45 45 45 45 44 44 44 44 44 44 44 43 43 43 44 44
34 34 34 34 34 34 35 35 36 36 37 37 38 39 39 40 41 41 42 43 43 43 44 44 44 45 45 44 43 43 43 43 43 43 43 42 42 42 42 42 42 42 43
35 35 35 35 36 36 36 36 37 37 37 38 38 39 40 41 42 42 42 42 43 43 43 44 43 43 43 42 41 41 42 41 41 41 41 41 41 41 42 42 42 42 43
35 35 36 36 36 36 36 37 37 37 38 38 39 40 40 40 41 41 42 42 42 43 43 42 42 41 40 39 39 39 39 40 40 40 40 40 40 40 40 40 41 41 41
35 35 36 36 36 36 36 37 37 37 38 38 38 39 39 39 40 40 41 42 42 41 41 40 39 39 38 37 38 38 38 38 38 38 38 38 38 39 38 38 39 39 39
36 36 37 37 37 37 37 37 37 38 38 38 38 38 39 40 40 40 41 41 41 40 39 39 38 37 37 37 37 37 37 37 37 37 36 37 37 37 37 37 37 37 37
36 36 37 37 37 38 38 38 38 38 38 38 38 39 39 39 40 40 39 39 39 38 38 37 37 36 36 36 36 36 36 36 36 36 36 35 36 36 36 36 35 35 35
Wind_Direction
266 266 265 263 262 260 258 255 251 247 244 241 239 239 239 238 237 236 236 239 239 242 246 248 249 249 252 255 258 260 263 265 267 268 269 269 269 270 271 271 271 272 273
266 268 266 265 263 260 259 255 252 248 244 240 238 238 238 239 239 238 239 241 242 243 246 249 250 250 254 257 260 262 264 265 267 269 270 270 269 270 271 271 271 271 272
267 269 271 270 264 261 262 256 252 248 241 237 238 238 240 241 240 240 241 243 244 244 246 249 250 252 255 258 261 264 265 266 267 269 270 271 271 270 270 271 271 271 272
267 268 271 269 263 260 260 256 251 247 244 243 240 239 242 242 242 242 243 245 247 247 248 251 253 255 256 259 261 264 265 266 268 269 270 270 271 270 270 270 271 270 271
270 271 272 269 265 261 259 254 252 249 248 247 243 241 244 244 243 244 245 246 249 250 251 252 256 256 258 260 262 264 266 267 268 268 269 269 270 270 271 270 270 269 270
275 274 272 270 267 262 258 256 254 250 248 246 245 243 244 245 245 245 246 248 251 252 253 254 257 258 260 262 263 265 266 267 268 269 269 270 271 271 271 271 270 269 270
277 277 274 270 268 264 262 259 257 253 247 247 247 245 245 246 247 248 250 251 253 255 255 255 257 260 262 264 266 266 266 268 269 270 271 271 272 272 272 272 272 271 271
278 278 276 273 268 266 265 263 259 255 248 246 248 248 247 248 248 249 251 253 255 258 258 259 259 262 264 266 266 266 267 268 269 271 272 271 272 272 272 273 274 274 273
277 277 275 272 269 268 267 264 260 257 251 248 250 250 250 250 249 251 253 255 257 259 260 262 263 262 264 265 266 267 268 269 270 271 272 272 273 274 274 274 275 275 274
277 276 275 273 270 268 266 264 262 259 256 253 253 252 251 251 251 252 255 258 259 260 262 264 264 263 264 265 267 268 269 270 271 272 273 274 274 274 275 275 276 276 276
277 276 274 272 269 269 268 265 263 261 258 256 255 255 253 251 252 254 256 259 261 262 263 264 265 265 266 267 268 269 270 271 273 274 274 275 275 274 275 275 275 276 275
275 274 272 270 269 269 269 268 264 262 261 258 258 258 257 257 257 258 259 260 263 264 265 266 267 268 269 269 270 272 272 273 275 275 275 275 275 275 275 276 276 276 275
275 274 273 271 270 270 269 269 268 266 264 261 260 259 261 261 261 261 262 263 264 266 267 269 269 270 270 271 273 274 274 275 275 276 275 275 276 275 276 276 276 276 276
276 275 274 273 272 271 271 271 270 268 267 266 264 263 263 262 262 264 264 266 266 268 269 270 271 271 272 273 275 275 275 276 275 275 275 275 275 276 277 277 277 277 276
275 275 276 275 274 273 272 272 272 270 269 269 269 267 267 265 265 267 267 268 269 269 270 271 272 273 274 275 275 274 274 274 275 274 275 276 276 276 276 276 277 276 277
273 275 275 274 273 273 272 271 270 270 270 270 270 270 270 269 269 269 270 271 271 271 272 272 273 274 276 276 275 274 273 273 275 275 274 275 275 275 275 276 276 277 277
272 273 274 274 272 272 272 271 271 271 271 271 272 271 272 272 273 272 271 272 272 272 273 274 275 275 276 275 275 275 274 273 274 275 275 274 275 275 275 275 275 277 279
273 274 274 274 273 272 273 272 272 272 272 272 273 273 273 274 274 273 273 274 274 274 275 277 278 278 277 276 275 275 275 275 274 274 274 274 274 274 275 275 277 279 279
272 273 274 274 273 272 272 273 273 274 274 275 274 274 274 276 275 275 275 275 276 276 277 278 279 279 279 278 277 276 276 276 275 274 274 274 275 275 275 276 278 279 280
271 272 273 274 273 272 272 272 273 275 276 276 276 275 275 276 277 276 276 277 277 278 279 279 279 279 279 279 278 277 277 277 276 275 274 274 275 275 275 277 279 279 280
270 271 273 274 274 273 272 273 274 275 276 276 276 276 276 277 278 278 278 278 279 280 280 280 280 279 279 279 278 277 277 276 275 275 275 276 276 276 277 278 279 279 280
270 271 273 274 274 274 274 274 274 275 275 276 276 276 277 277 279 280 280 281 281 281 282 281 280 280 280 279 278 277 276 276 275 275 276 276 277 277 278 278 279 280 281
271 272 273 274 274 275 275 275 275 275 276 276 277 277 278 278 279 280 281 281 282 282 281 280 280 280 278 278 277 276 276 275 275 276 276 276 277 278 278 278 279 280 280
272 273 273 274 274 275 275 275 275 276 277 278 278 278 279 279 280 280 281 282 282 282 280 280 279 278 277 277 276 275 275 275 275 276 276 276 277 278 279 280 280 280 281
273 274 274 274 275 276 276 276 276 277 277 278 279 280 281 281 281 281 282 282 281 280 279 278 277 277 277 277 276 276 276 275 276 276 277 277 277 278 279 280 281 281 282
274 275 275 275 276 276 277 277 277 278 278 279 279 280 281 281 281 282 282 281 281 279 278 277 277 277 277 277 276 276 276 276 276 277 277 278 277 278 279 280 281 282 283
Height
5718 5718 5717 5717 5717 5717 5716 5715 5716 5717 5719 5722 5724 5727 5730 5734 5737 5740 5743 5746 5749 5753 5756 5758 5760 5762 5764 5766 5767 5768 5769 5769 5769 5769 5770 5770 5769 5769 5769 5769 5768 5768 5768
5711 5711 5711 5710 5710 5710 5709 5708 5709 5710 5712 5715 5717 5720 5723 5726 5729 5732 5735 5738 5741 5744 5747 5749 5751 5753 5755 5756 5757 5758 5759 5759 5759 5759 5759 5760 5760 5759 5759 5759 5758 5758 5758
5705 5705 5704 5703 5702 5702 5702 5702 5703 5704 5706 5708 5711 5713 5716 5719 5722 5724 5727 5730 5732 5735 5738 5740 5742 5744 5745 5747 5748 5749 5749 5749 5749 5749 5749 5749 5749 5749 5749 5748 5748 5748 5747
5699 5698 5698 5697 5696 5696 5696 5696 5697 5698 5699 5701 5703 5706 5708 5711 5714 5716 5719 5722 5725 5727 5729 5731 5733 5734 5736 5737 5738 5739 5739 5739 5739 5738 5738 5738 5738 5738 5738 5738 5737 5737 5736
5693 5692 5691 5690 5690 5689 5689 5690 5690 5691 5693 5694 5696 5699 5701 5704 5706 5708 5711 5714 5717 5718 5720 5722 5724 5725 5726 5727 5728 5729 5728 5728 5728 5728 5727 5727 5726 5726 5726 5727 5726 5725 5725
5687 5686 5685 5684 5683 5683 5683 5683 5684 5684 5686 5687 5689 5692 5694 5696 5698 5700 5703 5706 5708 5710 5711 5713 5715 5716 5717 5717 5718 5718 5718 5718 5717 5717 5716 5716 5715 5715 5714 5714 5714 5714 5713
5680 5680 5679 5678 5677 5677 5677 5677 5677 5678 5679 5681 5683 5684 5686 5689 5691 5692 5695 5697 5699 5701 5702 5704 5706 5706 5707 5707 5707 5708 5707 5707 5706 5706 5705 5704 5704 5703 5702 5702 5701 5701 5701
5674 5673 5672 5671 5670 5670 5670 5671 5671 5671 5672 5674 5675 5677 5679 5681 5683 5685 5687 5689 5690 5692 5693 5695 5696 5697 5697 5697 5697 5697 5697 5696 5695 5695 5694 5693 5692 5691 5690 5689 5688 5688 5688
5667 5666 5665 5664 5664 5664 5664 5664 5664 5664 5665 5666 5667 5669 5671 5673 5674 5676 5678 5680 5681 5683 5684 5685 5686 5686 5686 5686 5686 5686 5685 5685 5684 5683 5682 5681 5680 5678 5678 5677 5675 5675 5674
5660 5659 5658 5657 5657 5657 5656 5656 5656 5657 5658 5658 5660 5661 5662 5664 5666 5668 5669 5671 5672 5673 5674 5674 5675 5675 5676 5675 5675 5674 5674 5673 5672 5671 5669 5668 5667 5665 5664 5663 5662 5661 5660
5653 5652 5651 5650 5650 5649 5649 5649 5649 5649 5650 5651 5652 5653 5654 5655 5657 5658 5660 5661 5662 5663 5663 5664 5664 5664 5664 5664 5663 5663 5662 5661 5659 5658 5656 5654 5653 5652 5651 5650 5649 5647 5646
5646 5645 5644 5643 5643 5642 5642 5642 5642 5642 5642 5642 5643 5644 5645 5646 5647 5649 5650 5650 5651 5652 5652 5652 5652 5652 5652 5651 5651 5650 5649 5648 5646 5644 5642 5640 5639 5638 5637 5636 5635 5634 5632
5638 5638 5637 5636 5636 5635 5635 5634 5634 5634 5634 5634 5634 5635 5636 5637 5638 5639 5639 5640 5641 5641 5641 5641 5641 5640 5640 5639 5638 5637 5636 5634 5633 5631 5629 5627 5626 5625 5624 5623 5621 5620 5618
5631 5630 5629 5628 5628 5628 5627 5626 5626 5626 5626 5625 5626 5626 5627 5627 5628 5629 5629 5629 5629 5629 5629 5629 5629 5628 5627 5626 5625 5624 5623 5621 5619 5617 5616 5614 5613 5612 5611 5609 5608 5606 5605
5623 5622 5621 5620 5620 5619 5619 5618 5617 5617 5617 5617 5617 5617 5617 5618 5618 5619 5619 5618 5618 5618 5617 5617 5617 5616 5615 5613 5612 5610 5609 5608 5606 5605 5603 5602 5600 5599 5597 5596 5595 5593 5592
5614 5614 5613 5612 5611 5611 5610 5609 5609 5608 5608 5608 5608 5608 5608 5608 5608 5608 5608 5607 5607 5606 5605 5605 5604 5603 5602 5600 5598 5597 5596 5594 5593 5592 5590 5589 5587 5586 5584 5583 5582 5581 5579
5606 5605 5604 5603 5602 5601 5600 5600 5599 5599 5599 5599 5598 5598 5598 5597 5597 5596 5596 5596 5595 5594 5593 5592 5591 5590 5588 5586 5585 5583 5582 5581 5579 5578 5577 5576 5574 5573 5572 5570 5569 5568 5566
5597 5596 5595 5594 5593 5592 5591 5590 5590 5590 5590 5589 5589 5588 5587 5586 5586 5585 5584 5583 5582 5582 5581 5579 5578 5576 5575 5573 5571 5569 5568 5567 5566 5565 5564 5562 5561 5560 5559 5558 5557 5556 5554
5587 5586 5585 5584 5583 5582 5582 5581 5580 5580 5579 5579 5578 5577 5576 5575 5574 5573 5572 5571 5570 5569 5568 5566 5565 5563 5562 5560 5558 5556 5555 5553 5553 5552 5550 5549 5548 5547 5546 5545 5545 5543 5542
5578 5577 5576 5575 5574 5573 5572 5571 5571 5570 5569 5567 5567 5565 5564 5563 5562 5561 5560 5559 5557 5556 5554 5553 5551 5549 5548 5546 5544 5542 5541 5540 5540 5539 5537 5536 5535 5534 5533 5532 5531 5530 5529
5568 5567 5566 5565 5564 5563 5562 5561 5560 5559 5558 5556 5555 5554 5553 5552 5550 5549 5548 5546 5545 5543 5541 5540 5538 5536 5534 5533 5531 5530 5528 5527 5526 5526 5525 5524 5523 5522 5521 5520 5519 5517 5515
5557 5557 5556 5555 5554 5553 5552 5551 5549 5548 5547 5546 5544 5543 5541 5540 5538 5537 5535 5533 5532 5530 5528 5526 5525 5523 5521 5520 5518 5517 5516 5515 5514 5513 5512 5512 5511 5510 5509 5507 5506 5505 5503
5547 5546 5545 5544 5543 5542 5540 5540 5538 5537 5536 5535 5533 5531 5530 5528 5527 5525 5523 5521 5519 5517 5515 5513 5512 5510 5508 5507 5506 5505 5504 5503 5502 5501 5501 5500 5499 5498 5497 5496 5494 5493 5491
5536 5535 5534 5533 5532 5531 5529 5528 5527 5526 5525 5523 5522 5520 5518 5517 5515 5513 5511 5508 5506 5504 5502 5501 5499 5498 5497 5496 5495 5493 5492 5492 5491 5490 5489 5489 5488 5487 5486 5484 5483 5481 5479
5524 5523 5522 5522 5521 5519 5518 5517 5515 5514 5513 5512 5510 5508 5507 5505 5503 5501 5499 5496 5494 5492 5490 5489 5488 5487 5487 5485 5484 5482 5482 5481 5480 5479 5479 5478 5477 5476 5475 5474 5472 5470 5469
5513 5512 5511 5510 5509 5508 5506 5505 5504 5503 5501 5500 5499 5497 5495 5493 5491 5489 5487 5485 5483 5481 5479 5478 5478 5477 5476 5475 5474 5473 5472 5471 5470 5469 5468 5468 5467 5466 5465 5463 5462 5460 5458